Regional Weather Roundup
Issued by NWS Charleston, SC

Current Version | Previous Version | Text Only | Print | Product List | Glossary Off
Versions: 1 2 3 4 5 6 7 8 9 10 11 12 13 14 15 16 17 18 19 20 21 22 23 24 25 26 27 28 29 30 31 32 33 34 35 36 37 38 39 40 41 42 43 44 45 46 47 48 49 50
767 ASUS42 KCHS 070012 RWRCHS REGIONAL WEATHER ROUNDUP NATIONAL WEATHER SERVICE CHARLESTON SC 700 PM EST SAT FEB 06 2016 NOTE: "FAIR" INDICATES FEW OR NO CLOUDS BELOW 12,000 FEET WITH NO SIGNIFICANT WEATHER AND/OR OBSTRUCTIONS TO VISIBILITY. NOT ALL STATIONS ARE QUALITY CONTROLLED BY THE NATIONAL WEATHER SERVICE. USE DATA WITH CAUTION...ESPECIALLY DEWPOINT OBSERVATIONS. NOTICE: OBSERVATIONS FOR THE SAVANNAH-HILTON HEAD INTERNATIONAL AIRPORT /KSAV/ HAVE BEEN TEMPORARILY REMOVED DUE TO AN ERRONEOUS TEMPERATURE SENSOR. THE OBSERVATION WILL BE REINTRODUCED ONCE REPAIRS ARE COMPLETE. SCZ027-030-031-034>040-042>050-070100- ...SOUTHEAST SOUTH CAROLINA... CITY SKY/WX TMP DP RH WIND PRES REMARKS N CHARLESTON LGT RAIN 46 34 62 N14 30.23F 6HR MIN TEMP: 46; 6HR MAX TEMP: 56; 6HR PCP: TRACE; WATERFRONT PRK N/A 46 41 82 N12 30.08F MOUNT PLEASANT CLOUDY 45 41 87 NE5 30.24F JOHNS ISLAND CLOUDY 46 37 71 N14 30.21F PINOPOLIS N/A 48 34 57 NE13 30.17F MONCKS CORNER CLOUDY 43 30 61 NE12 30.25F SUMMERVILLE CLOUDY 45 36 70 NE8 30.25F BEAUFORT MCAS CLOUDY 45 37 73 N13 30.22F 6HR MIN TEMP: 45; 6HR MAX TEMP: 56; 6HR PCP: TRACE; BEAUFORT ARPT CLOUDY 46 36 66 N20 30.20F HILTON HEAD IS CLOUDY 48 37 66 N12G21 30.20F WALTERBORO DRIZZLE 45 37 76 N5 30.24F ALLENDALE CLOUDY 41 37 87 CALM 30.25S ...SOUTHERN MIDLANDS AND PEE DEE... CITY SKY/WX TMP DP RH WIND PRES REMARKS GEORGETOWN NOT AVBL KINGSTREE NOT AVBL ORANGEBURG CLOUDY 42 35 76 NE6 30.26F 6HR MIN TEMP: 42; 6HR MAX TEMP: 49; 6HR PCP: 0.04; BARNWELL CLOUDY 43 37 81 NE6 30.25F AIKEN CLOUDY 45 28 53 CALM 30.28F MANNING CLOUDY 45 28 53 N6 30.26F COLUMBIA CLOUDY 49 26 41 E6 30.26S 6HR MIN TEMP: 48; 6HR MAX TEMP: 53; SUMTER LGT RAIN 45 30 55 E6 30.25S 6HR MIN TEMP: 45; 6HR MAX TEMP: 51; 6HR PCP: TRACE; FLORENCE CLOUDY 47 28 47 NE5 30.28R 6HR MIN TEMP: 47; 6HR MAX TEMP: 50; MYRTLE BEACH CLOUDY 48 27 43 NE15 30.26F N MYRTLE BEACH LGT RAIN 47 28 47 N9 30.24F 6HR MIN TEMP: 47; 6HR MAX TEMP: 51; 6HR PCP: TRACE; $$ GAZ063-065-086>088-099>101-113>116-118-119-134>141-150-070100- ...SOUTHEAST GEORGIA... CITY SKY/WX TMP DP RH WIND PRES REMARKS SAVANNAH ARPT CLOUDY 44 35 70 N10 30.22S 6HR MIN TEMP: 44; 6HR MAX TEMP: 53; 6HR PCP: 0.04; HUNTER AAF LGT RAIN 46 37 72 N7 30.18S 6HR MIN TEMP: 46; 6HR MAX TEMP: 51; 6HR PCP: 0.01; FORT STEWART LGT RAIN 44 36 74 N9 30.17F 6HR MIN TEMP: 44; 6HR MAX TEMP: 51; 6HR PCP: TRACE; STATESBORO CLOUDY 45 35 68 N9 30.24S SYLVANIA CLOUDY 42 39 89 NE7 30.26R CLAXTON DRIZZLE 43 39 88 N5 30.24S ...CSRA...CENTRAL AND FAR SOUTHEAST GEORGIA... CITY SKY/WX TMP DP RH WIND PRES REMARKS THOMSON CLOUDY 49 32 51 NE5 30.27F AUGUSTA-BUSH CLOUDY 45 30 55 SE5 30.26F 6HR MIN TEMP: 45; 6HR MAX TEMP: 51; 6HR PCP: TRACE; AUGUSTA-DANIEL CLOUDY 47 28 47 E5 30.25F SWAINSBORO CLOUDY 43 36 75 CALM 30.25S VIDALIA LGT RAIN 41 36 81 NE7 30.23S EASTMAN CLOUDY 44 33 65 CALM 30.26F HAZLEHURST CLOUDY 43 37 79 N7 30.23S ALMA LGT RAIN 41 39 93 N6 30.21F 6HR MIN TEMP: 41; 6HR MAX TEMP: 52; 6HR PCP: 0.04; WAYCROSS RAIN 45 43 92 N14 30.18F JESUP DRIZZLE 46 41 81 N8 30.19F BAXLEY LGT RAIN 43 41 93 NE9 30.22S BRUNSWICK DRIZZLE 46 39 76 N8 30.17F SAINT SIMONS CLOUDY 47 40 76 N15G23 30.15F 6HR MIN TEMP: 47; 6HR MAX TEMP: 53; $$ SCZ027-028-034-036>038-045-046-048>050-GAZ119-141-070100- ...LAKE AND SUPPLEMENTAL COASTAL OBSERVATIONS... STATION/POSITION TIME TEMP WIND PRES WAVE SWELL AIR SEA DIR/SP/G HT/PER HT/PER/DIR (UTC) (F) (DEG/KT/KT) (MB) (FT/S) (FT/S/D) WINYAH BAY NOT AVBL LAKE MURRAY 2300 50 50/ 3/ 6 1024.0F ACE BASIN NERRS NOT AVBL FORT PULASKI 2300 47 54 360/ 11/ 14 1022.8F SAPELO ISLAND 2300 49 360/ 13 1022.0S $$ ANZ835-935-AMZ111-154-330-350-352-354-370-450-454-472-070100- ...C-MAN AND BUOY OBSERVATIONS... STATION/POSITION TIME TEMP WIND PRES WAVE SWELL AIR SEA DIR/SP/G HT/PER HT/PER/DIR (UTC) (F) (DEG/KT/KT) (MB) (FT/S) (FT/S/D) BUOY 41004 2350 54 64 20/ 25/ 29 1020.3F 7/ 7 3/ 9 BUOY 41008 2350 50 56 20/ 25/ 29 1020.3F 7/ 7 3/100/ 9 FOLLY BEACH CMAN 0000 45 20/ 16/ 20 1023.2F CAPERS NEARSHORE 2308 46 40/ 17/ 23 1023.1F FRIPP NEARSHORE 2300 49 20/ 17/ 21 1022.2F STATION/POSITION TIME TEMP WIND PRES WAVE SWELL AIR SEA DIR/SP/G HT/PER HT/PER/DIR (UTC) (F) (DEG/KT/KT) (MB) (FT/S) (FT/S/D) 5E ST. MARYS GA 2321 57 N/A 7/ 6 2/ 90/11 FRYING PAN BUOY 2300 54 68 10/ 23/ 27 1022.9F BUOY 41025 2350 53 71 20/ 19/ 23 1024.6F 6/10 5/ 70/10 CAPE LOOKOUT NC NOT AVBL BUOY 41002 2350 61 69 70/ 14/ 16 N/A 8/11 7/ 20/11 BUOY 41010 2320 67 75 1017.8F ST AUGUSTINE FL 0000 55 58 350/ 27/ 31 1018.0F $$

USA.gov is the U.S. government's official web portal to all federal, state and local government web resources and services.